Weather History for EGQM - November, 2012

Change the Weather History Date:

Tuesday, November 6, 2012

  Actual Average Record
Temperature  
Mean Temperature 44 °F -  
Max Temperature 54 °F - - ()
Min Temperature 35 °F - - ()
Degree Days  
Heating Degree Days 20    
Moisture  
Dew Point 42 °F    
Average Humidity 79    
Maximum Humidity 87    
Minimum Humidity 61    
Precipitation  
Precipitation 0.08 in - - ()
Sea Level Pressure  
Sea Level Pressure 29.91 in    
Wind  
Wind Speed 14 mph ()    
Max Wind Speed 29 mph    
Max Gust Speed -    
Visibility 7.4 miles    
Events Rain    
T = Trace of Precipitation, MM = Missing Value Source: Averaged Metar Reports

Daily Weather History Graph

Daily Weather History Graph

Search for Another Location

Airport or City:

Trip Planner

Search our weather history database for the weather conditions in past years. The results will help you decide how hot, cold, wet, or windy it might be!

Date:

Astronomy

Nov. 06, 2012 Rise Set
Actual Time 7:22 AM GMT 4:16 PM GMT
Civil Twilight 6:42 AM GMT 4:56 PM GMT
Nautical Twilight 5:58 AM GMT 5:40 PM GMT
Astronomical Twilight 5:15 AM GMT 6:23 PM GMT
Moon 10:50 PM GMT (11/6) 1:00 PM GMT (11/6)
Length of Visible Light 10h 14m
Length of Day
8h 54m
Waning Gibbous, 55% of the Moon is Illuminated
Nov 6
Waning Gibbous
Nov 7
Last Quarter
Nov 13
New
Nov 20
First Quarter
Nov 28
Full

Hourly Weather History & Observations

Time (GMT) Temp. Windchill Dew Point Humidity Pressure Visibility Wind Dir Wind Speed Gust Speed Precip Events Conditions
12:50 AM 39.2 °F 33.0 °F 33.8 °F 81% 29.95 in 6.2 mi West 9.2 mph - N/A   Mostly Cloudy
1:50 AM 35.6 °F 28.0 °F 32.0 °F 87% 29.95 in 6.2 mi SW 10.4 mph - N/A   Mostly Cloudy
2:50 AM 37 °F - 33 °F 82% 29.95 in 22 mi SW 10.4 mph - -   Overcast
2:50 AM 37.4 °F 30.3 °F 33.8 °F 87% 29.95 in 6.2 mi SW 10.4 mph - N/A   Overcast
3:50 AM 37.4 °F 29.8 °F 32.0 °F 81% 29.92 in 6.2 mi WSW 11.5 mph - N/A   Mostly Cloudy
4:50 AM 41.0 °F 33.1 °F 35.6 °F 81% 29.89 in 6.2 mi WSW 15.0 mph - N/A   Overcast
5:50 AM 41 °F - 36 °F 77% 29.90 in 25 mi WSW 15.0 mph - -  
5:50 AM 41.0 °F 33.1 °F 35.6 °F 81% 29.89 in 6.2 mi WSW 15.0 mph - N/A   Mostly Cloudy
6:50 AM 42.8 °F 36.2 °F 37.4 °F 81% 29.89 in 6.2 mi WSW 12.7 mph - N/A   Overcast
7:50 AM 44.6 °F 36.4 °F 39.2 °F 81% 29.86 in 6.2 mi WSW 20.7 mph - N/A   Overcast
8:50 AM 46 °F - 41 °F 77% 29.86 in 28 mi WSW 18.4 mph - -   Partly Cloudy
8:50 AM 46.4 °F 39.2 °F 41.0 °F 81% 29.86 in 6.2 mi WSW 18.4 mph - N/A   Mostly Cloudy
9:50 AM 48.2 °F - 42.8 °F 82% 29.86 in 6.2 mi West 19.6 mph - N/A Rain Light Rain Showers
10:50 AM 50.0 °F - 44.6 °F 82% 29.86 in 6.2 mi West 16.1 mph - N/A Rain Rain
11:50 AM 51 °F - 46 °F 75% 29.86 in 19 mi West 20.7 mph - - Rain Light Rain
11:50 AM 50.0 °F - 46.4 °F 87% 29.86 in 6.2 mi West 20.7 mph - N/A Rain Light Rain
12:50 PM 51.8 °F - 46.4 °F 82% 29.86 in 6.2 mi West 24.2 mph - N/A   Mostly Cloudy
1:50 PM 51.8 °F - 46.4 °F 82% 29.86 in 6.2 mi West 24.2 mph - N/A Rain Light Rain Showers
2:50 PM 53 °F - 47 °F 75% 29.88 in 16 mi West 24.2 mph - - Rain Light Rain Showers
2:50 PM 53.6 °F - 48.2 °F 82% 29.86 in 6.2 mi West 24.2 mph - N/A Rain Light Rain Showers
3:50 PM 53.6 °F - 48.2 °F 82% 29.86 in 6.2 mi West 24.2 mph - N/A   Overcast
4:50 PM 53.6 °F - 48.2 °F 82% 29.89 in 6.2 mi West 26.5 mph - N/A   Mostly Cloudy
5:50 PM 53 °F - 47 °F 74% 29.93 in 31 mi West 28.8 mph - - Rain Rain
5:50 PM 53.6 °F - 46.4 °F 77% 29.92 in 6.2 mi West 28.8 mph - N/A   Mostly Cloudy
6:50 PM 53.6 °F - 46.4 °F 77% 29.92 in 6.2 mi West 20.7 mph - N/A   Mostly Cloudy
7:50 PM 51.8 °F - 46.4 °F 82% 29.95 in 6.2 mi West 16.1 mph - N/A   Mostly Cloudy
8:50 PM 52 °F - 45 °F 71% 29.97 in 31 mi West 17.3 mph - -   Mostly Cloudy
8:50 PM 51.8 °F - 44.6 °F 76% 29.95 in 6.2 mi West 17.3 mph - N/A   Mostly Cloudy
9:50 PM 50.0 °F - 44.6 °F 82% 29.98 in 6.2 mi WSW 15.0 mph - N/A   Partly Cloudy
10:50 PM 50.0 °F - 41.0 °F 71% 30.01 in 6.2 mi West 11.5 mph - N/A   Unknown
11:50 PM 49 °F - 40 °F 61% 30.01 in 15 mi WNW 12.7 mph - -  
11:50 PM 48.2 °F - 39.2 °F 71% 30.01 in 6.2 mi WNW 12.7 mph - N/A   Unknown